When you browse on this site, cookies collect data to enhance your experience and personalize the content and advertising you see.
Visit our Privacy Policy to learn more. By continuing to use the site, you agree to this use of cookies and data.
  • în România
  • Lista ţărilor
  • Pe 7 zile
  • Temperatura apei
  • Hartă satelitară
  • Meteo pe hartă
  • Widget-uri
  • user-avatar
    Intrare

    Meteo pe oră la Oran

    Astăzi, 20 Aprilie, Sâmbătă

    Timp Temperatura Precipitaţii Vânt Presiune Umiditate
    00:00 +12°C° 0 mm 1 m/s 749 mmHg 84%
    01:00 +12°C° 0 mm 1 m/s 749 mmHg 83%
    02:00 +12°C° 0 mm 2 m/s 749 mmHg 82%
    03:00 +12°C° 0 mm 2 m/s 748 mmHg 82%
    04:00 +12°C° 0 mm 2 m/s 748 mmHg 82%
    05:00 +12°C° 0 mm 2 m/s 748 mmHg 82%
    06:00 +12°C° 0 mm 2 m/s 748 mmHg 83%
    07:00 +14°C° 0 mm 2 m/s 748 mmHg 74%
    08:00 +16°C° 0 mm 2 m/s 748 mmHg 66%
    09:00 +17°C° 0 mm 3 m/s 748 mmHg 58%
    10:00 +18°C° 0 mm 3 m/s 748 mmHg 55%
    11:00 +19°C° 0 mm 3 m/s 748 mmHg 52%
    12:00 +20°C° 0 mm 3 m/s 748 mmHg 49%
    13:00 +20°C° 0 mm 3 m/s 747 mmHg 50%
    14:00 +20°C° 0 mm 4 m/s 747 mmHg 51%
    15:00 +20°C° 0 mm 4 m/s 747 mmHg 53%
    16:00 +19°C° 0 mm 4 m/s 747 mmHg 57%
    17:00 +18°C° 0 mm 3 m/s 747 mmHg 61%
    18:00 +18°C° 0 mm 3 m/s 747 mmHg 65%
    19:00 +17°C° 0.1 mm 3 m/s 747 mmHg 69%
    20:00 +16°C° 0.1 mm 3 m/s 747 mmHg 74%
    21:00 +16°C° 0.1 mm 3 m/s 748 mmHg 78%
    22:00 +15°C° 0.3 mm 2 m/s 747 mmHg 80%
    23:00 +15°C° 0.3 mm 2 m/s 747 mmHg 83%

    Mâine, 21 Aprilie, Duminică

    Timp Temperatura Precipitaţii Vânt Presiune Umiditate
    00:00 +15°C° 0.3 mm 2 m/s 747 mmHg 86%
    01:00 +15°C° 0.2 mm 2 m/s 746 mmHg 85%
    02:00 +15°C° 0.2 mm 2 m/s 746 mmHg 84%
    03:00 +15°C° 0.2 mm 2 m/s 745 mmHg 82%
    04:00 +15°C° 0.2 mm 2 m/s 744 mmHg 84%
    05:00 +15°C° 0.2 mm 2 m/s 744 mmHg 86%
    06:00 +15°C° 0.2 mm 2 m/s 743 mmHg 88%
    07:00 +15°C° 0.4 mm 2 m/s 743 mmHg 87%
    08:00 +15°C° 0.4 mm 2 m/s 743 mmHg 87%
    09:00 +15°C° 0.4 mm 2 m/s 743 mmHg 86%
    10:00 +14°C° 1.3 mm 3 m/s 743 mmHg 87%
    11:00 +14°C° 1.3 mm 4 m/s 742 mmHg 88%
    12:00 +14°C° 1.3 mm 5 m/s 742 mmHg 89%
    13:00 +14°C° 1.7 mm 5 m/s 742 mmHg 89%
    14:00 +14°C° 1.7 mm 5 m/s 741 mmHg 88%
    15:00 +14°C° 1.7 mm 6 m/s 741 mmHg 88%
    16:00 +14°C° 1.3 mm 6 m/s 741 mmHg 88%
    17:00 +14°C° 1.3 mm 6 m/s 741 mmHg 89%
    18:00 +14°C° 1.3 mm 6 m/s 741 mmHg 89%
    19:00 +14°C° 7 mm 7 m/s 742 mmHg 90%
    20:00 +12°C° 7 mm 8 m/s 742 mmHg 90%
    21:00 +12°C° 7 mm 10 m/s 743 mmHg 90%
    22:00 +12°C° 7.3 mm 9 m/s 743 mmHg 90%
    23:00 +12°C° 7.3 mm 8 m/s 742 mmHg 90%

    Poimâine, 22 Aprilie, Luni

    Timp Temperatura Precipitaţii Vânt Presiune Umiditate
    00:00 +12°C° 7.3 mm 7 m/s 742 mmHg 91%
    01:00 +12°C° 0.8 mm 7 m/s 742 mmHg 89%
    02:00 +12°C° 0.8 mm 7 m/s 742 mmHg 88%
    03:00 +14°C° 0.8 mm 7 m/s 741 mmHg 87%
    04:00 +12°C° 0.1 mm 7 m/s 741 mmHg 86%
    05:00 +13°C° 0.1 mm 6 m/s 741 mmHg 85%
    06:00 +13°C° 0.1 mm 6 m/s 741 mmHg 84%
    07:00 +15°C° 0.1 mm 7 m/s 742 mmHg 78%
    08:00 +16°C° 0.1 mm 8 m/s 742 mmHg 72%
    09:00 +18°C° 0.1 mm 10 m/s 742 mmHg 66%
    10:00 +18°C° 0.3 mm 10 m/s 742 mmHg 65%
    11:00 +18°C° 0.3 mm 10 m/s 743 mmHg 63%
    12:00 +19°C° 0.3 mm 10 m/s 743 mmHg 62%
    13:00 +19°C° 0.1 mm 10 m/s 742 mmHg 59%
    14:00 +21°C° 0.1 mm 9 m/s 742 mmHg 55%
    15:00 +21°C° 0.1 mm 8 m/s 742 mmHg 52%
    16:00 +20°C° 0 mm 8 m/s 742 mmHg 55%
    17:00 +20°C° 0 mm 7 m/s 742 mmHg 58%
    18:00 +18°C° 0 mm 7 m/s 742 mmHg 61%
    19:00 +17°C° 0 mm 6 m/s 742 mmHg 65%
    20:00 +16°C° 0 mm 6 m/s 743 mmHg 69%
    21:00 +16°C° 0 mm 5 m/s 743 mmHg 72%
    22:00 +16°C° 0 mm 5 m/s 743 mmHg 73%
    23:00 +15°C° 0 mm 5 m/s 743 mmHg 73%

    23 Aprilie, Marţi

    Timp Temperatura Precipitaţii Vânt Presiune Umiditate
    00:00 +15°C° 0 mm 6 m/s 742 mmHg 73%
    01:00 +15°C° 0 mm 6 m/s 742 mmHg 73%
    02:00 +15°C° 0 mm 6 m/s 742 mmHg 73%
    03:00 +15°C° 0 mm 6 m/s 742 mmHg 74%
    04:00 +15°C° 0 mm 5 m/s 742 mmHg 74%
    05:00 +15°C° 0 mm 5 m/s 742 mmHg 74%
    06:00 +14°C° 0 mm 4 m/s 742 mmHg 75%
    07:00 +16°C° 0 mm 5 m/s 742 mmHg 70%
    08:00 +17°C° 0 mm 5 m/s 743 mmHg 64%
    09:00 +20°C° 0 mm 5 m/s 743 mmHg 59%
    10:00 +21°C° 0 mm 6 m/s 743 mmHg 54%
    11:00 +22°C° 0 mm 6 m/s 743 mmHg 48%
    12:00 +23°C° 0 mm 6 m/s 743 mmHg 43%
    13:00 +23°C° 0 mm 6 m/s 742 mmHg 42%
    14:00 +23°C° 0 mm 5 m/s 742 mmHg 41%
    15:00 +23°C° 0 mm 5 m/s 742 mmHg 41%
    16:00 +21°C° 0 mm 5 m/s 742 mmHg 50%
    17:00 +20°C° 0 mm 6 m/s 742 mmHg 58%
    18:00 +17°C° 0 mm 6 m/s 743 mmHg 67%
    19:00 +16°C° 0.7 mm 6 m/s 744 mmHg 71%
    20:00 +15°C° 0.7 mm 6 m/s 744 mmHg 75%
    21:00 +15°C° 0.7 mm 6 m/s 745 mmHg 79%
    22:00 +14°C° 1.5 mm 5 m/s 745 mmHg 81%
    23:00 +14°C° 1.5 mm 5 m/s 745 mmHg 82%

    24 Aprilie, Miercuri

    Timp Temperatura Precipitaţii Vânt Presiune Umiditate
    00:00 +13°C° 1.5 mm 5 m/s 745 mmHg 84%
    01:00 +13°C° 0.7 mm 5 m/s 745 mmHg 84%
    02:00 +13°C° 0.7 mm 5 m/s 745 mmHg 84%
    03:00 +13°C° 0.7 mm 5 m/s 745 mmHg 85%
    04:00 +12°C° 0.5 mm 4 m/s 746 mmHg 84%
    05:00 +12°C° 0.5 mm 4 m/s 746 mmHg 84%
    06:00 +12°C° 0.5 mm 3 m/s 746 mmHg 83%
    07:00 +13°C° 0.4 mm 3 m/s 747 mmHg 81%
    08:00 +14°C° 0.4 mm 2 m/s 747 mmHg 79%
    09:00 +14°C° 0.4 mm 2 m/s 747 mmHg 78%
    10:00 +14°C° 0.1 mm 3 m/s 748 mmHg 73%
    11:00 +16°C° 0.1 mm 3 m/s 748 mmHg 69%
    12:00 +16°C° 0.1 mm 3 m/s 748 mmHg 64%
    13:00 +17°C° 0 mm 4 m/s 748 mmHg 64%
    14:00 +17°C° 0 mm 4 m/s 748 mmHg 64%
    15:00 +17°C° 0 mm 4 m/s 748 mmHg 65%
    16:00 +17°C° 0 mm 4 m/s 749 mmHg 63%
    17:00 +17°C° 0 mm 4 m/s 749 mmHg 62%
    18:00 +17°C° 0 mm 3 m/s 750 mmHg 61%
    19:00 +16°C° 0 mm 3 m/s 751 mmHg 66%
    20:00 +14°C° 0 mm 3 m/s 751 mmHg 70%
    21:00 +13°C° 0 mm 3 m/s 752 mmHg 75%
    22:00 +13°C° 0 mm 4 m/s 752 mmHg 75%
    23:00 +13°C° 0 mm 4 m/s 752 mmHg 75%

    25 Aprilie, Joi

    Timp Temperatura Precipitaţii Vânt Presiune Umiditate
    00:00 +13°C° 0 mm 5 m/s 752 mmHg 75%
    01:00 +13°C° 0 mm 5 m/s 752 mmHg 76%
    02:00 +13°C° 0 mm 5 m/s 752 mmHg 77%
    03:00 +13°C° 0 mm 5 m/s 752 mmHg 77%
    04:00 +13°C° 0 mm 5 m/s 753 mmHg 77%
    05:00 +13°C° 0 mm 5 m/s 753 mmHg 78%
    06:00 +13°C° 0 mm 5 m/s 754 mmHg 78%
    07:00 +14°C° 0 mm 6 m/s 754 mmHg 72%
    08:00 +16°C° 0 mm 7 m/s 754 mmHg 65%
    09:00 +17°C° 0 mm 7 m/s 755 mmHg 59%
    10:00 +18°C° 0 mm 8 m/s 755 mmHg 56%
    11:00 +20°C° 0 mm 8 m/s 755 mmHg 52%
    12:00 +21°C° 0 mm 8 m/s 755 mmHg 49%
    13:00 +21°C° 0 mm 8 m/s 755 mmHg 48%
    14:00 +21°C° 0 mm 8 m/s 755 mmHg 48%
    15:00 +21°C° 0 mm 8 m/s 754 mmHg 47%
    16:00 +20°C° 0 mm 7 m/s 755 mmHg 51%
    17:00 +20°C° 0 mm 6 m/s 755 mmHg 54%
    18:00 +19°C° 0 mm 6 m/s 755 mmHg 57%
    19:00 +17°C° 0 mm 5 m/s 756 mmHg 61%
    20:00 +17°C° 0 mm 4 m/s 757 mmHg 64%
    21:00 +15°C° 0 mm 4 m/s 757 mmHg 67%
    22:00 +16°C° 0 mm 3 m/s 757 mmHg 67%
    23:00 +16°C° 0 mm 3 m/s 757 mmHg 66%
    Arată mai mult